SCP
0 0 0 0 0 0 0 0 0 0 0 0 0 0 0 0 0 0 0 1 1 1 1 1 1 1 1 1 1 1 1 0 0 0 0 0 0 0 0 0 0 0 0 0
0 0 0 0 0 0 0 0 0 0 0 0 0 0 0 0 0 0 0 1 1 1 1 1 1 1 1 1 1 1 1 1 0 0 0 0 0 0 0 0 0 0 0 0
0 0 0 0 0 0 0 0 0 0 0 0 0 0 0 0 0 0 0 0 1 1 1 1 1 1 1 1 1 1 1 1 1 0 0 0 0 0 0 0 0 0 0 0
0 0 0 0 0 0 0 0 0 0 0 0 0 0 0 0 0 0 0 0 1 1 1 1 1 1 1 1 1 1 1 1 1 0 0 0 0 0 0 0 0 0 0 0
0 0 0 0 0 0 0 0 0 0 0 0 0 0 0 0 0 0 0 0 1 1 1 1 1 1 1 1 1 1 1 1 1 1 0 0 0 0 0 0 0 0 0 0
0 0 0 0 0 0 0 0 0 0 0 0 0 0 0 0 0 0 0 0 1 1 1 1 1 1 1 1 1 1 1 1 1 1 1 1 0 0 0 0 0 0 0 0
0 0 0 0 0 0 0 0 0 0 0 0 0 0 0 0 0 0 0 0 0 0 1 1 1 1 1 1 1 1 2 2 1 1 1 1 1 0 0 0 0 0 0 0
0 0 0 0 0 0 0 0 0 0 0 0 0 0 0 0 0 0 0 0 0 0 0 1 1 1 1 1 1 1 2 2 1 1 1 1 1 1 0 0 0 0 0 0
0 0 0 0 0 0 0 0 0 0 0 0 0 0 0 0 0 0 0 0 0 0 0 1 1 1 1 1 1 1 2 2 1 1 1 1 1 1 1 1 0 0 1 0
0 0 0 0 0 0 0 0 0 0 0 0 0 0 0 0 0 0 0 0 0 0 0 0 1 1 1 1 1 1 2 2 1 1 1 1 1 1 1 1 1 1 1 1
0 0 0 0 0 0 0 0 0 0 0 0 0 0 0 0 0 0 0 0 0 0 0 1 1 1 1 1 1 1 1 1 1 1 1 1 1 1 1 1 1 1 1 1
0 0 0 0 0 0 0 0 0 0 0 0 0 0 0 0 0 0 0 1 1 1 1 1 1 1 1 1 1 1 1 1 1 1 1 1 1 1 1 1 1 1 1 1
0 0 0 0 0 0 0 0 0 0 0 0 0 0 0 0 0 0 1 1 1 1 1 1 1 1 1 1 1 1 1 1 1 1 1 1 1 1 1 1 1 1 1 1
0 0 0 0 0 0 0 0 0 0 0 0 0 0 0 0 1 1 1 1 1 1 1 1 1 1 1 1 1 1 1 1 1 1 1 1 1 1 1 1 1 1 1 1
0 0 0 0 0 0 0 0 0 0 0 0 0 0 1 1 1 1 1 1 1 1 1 1 1 1 1 1 1 1 1 1 1 1 1 1 1 1 1 1 1 1 1 1
0 0 0 0 0 0 0 0 0 0 0 0 0 0 1 1 1 1 1 1 1 1 1 1 1 1 1 2 2 2 1 1 1 1 1 1 1 1 1 1 1 1 1 1
0 0 0 0 0 0 0 0 0 0 0 0 0 0 1 1 1 1 1 1 1 1 1 1 1 1 1 1 2 2 2 2 2 2 2 2 2 1 1 1 1 1 1 1
0 0 0 0 0 0 0 0 0 0 0 0 0 1 1 1 1 1 1 1 1 1 1 1 1 1 1 1 1 2 2 2 2 2 2 2 1 1 1 1 1 1 1 1
0 0 0 0 0 0 0 0 0 0 0 0 1 1 1 1 1 1 1 1 1 1 1 1 1 1 1 1 1 1 2 2 2 2 2 1 1 1 1 1 1 1 1 1
0 0 0 0 0 0 0 0 0 0 0 0 1 1 1 1 1 1 1 1 1 1 1 1 1 1 1 1 1 1 1 2 2 1 1 1 1 1 1 1 1 1 1 1
0 0 0 0 0 0 0 0 0 0 1 1 1 1 1 1 1 1 1 1 1 0 0 1 1 1 1 1 1 1 1 1 1 1 1 1 1 1 1 1 1 1 1 1
0 0 0 0 0 0 0 0 0 1 1 1 1 1 1 1 1 1 1 1 1 0 0 1 1 1 1 1 1 1 1 1 1 1 1 1 1 1 1 1 1 1 1 1
0 0 0 0 0 0 0 0 1 1 1 1 1 1 1 1 1 1 1 1 1 1 1 1 1 1 1 1 2 1 1 1 1 1 1 1 1 1 1 1 1 1 1 1
0 0 0 0 0 0 0 0 1 1 1 1 1 1 1 1 1 1 1 1 1 1 1 1 1 1 1 1 1 1 1 1 1 1 1 1 1 1 1 1 1 1 1 1
0 0 0 0 0 0 0 0 0 1 1 1 1 1 1 1 1 1 1 1 1 1 1 1 1 1 1 1 1 1 1 1 1 1 1 1 1 1 1 1 1 1 1 1
0 0 0 0 0 0 0 0 0 1 1 1 0 0 0 1 1 1 1 1 1 1 1 1 1 1 1 1 1 1 1 1 1 1 1 1 1 1 1 0 0 0 0 0
Wind_Speed
10 10 10 10 9 10 9 9 5 3 1 1 1 4 5 6 7 8 10 11 11 11 11 10 9 9 8 7 5 5 4 3 2 1 2 2 1 2 2 2 3 3 3 2
10 12 11 10 9 9 9 9 7 5 2 2 1 3 4 6 6 6 9 11 12 12 11 10 9 9 8 7 6 5 4 4 3 2 1 1 2 2 2 2 2 3 3 2
14 10 9 9 8 8 9 9 8 6 5 4 3 2 3 5 5 5 6 9 12 12 13 12 10 9 9 8 7 5 5 4 4 3 2 1 1 1 2 2 2 2 2 2
13 11 9 7 8 8 9 9 8 7 7 6 4 2 3 5 6 7 6 8 10 11 12 11 10 9 9 8 8 6 5 4 4 3 2 3 2 2 2 2 2 2 2 2
11 10 10 9 8 8 9 9 9 9 9 7 5 3 4 6 7 8 7 7 8 10 11 10 9 8 7 8 8 7 6 5 4 3 3 2 1 2 2 2 3 2 2 2
13 10 9 8 8 8 8 9 10 9 8 8 7 5 3 3 5 8 7 7 7 7 9 10 9 8 6 7 8 8 7 6 5 4 3 3 2 2 2 2 3 3 2 2
14 13 10 8 9 8 8 7 6 5 6 8 4 3 1 1 3 6 8 7 7 6 8 9 9 8 7 6 6 7 8 7 6 5 4 3 2 2 2 2 2 3 2 2
11 11 10 9 8 8 8 7 6 6 8 7 3 3 4 4 4 7 8 9 7 6 6 8 9 8 7 6 6 7 7 6 6 5 5 4 3 3 2 2 2 1 1 2
8 7 5 6 6 8 9 8 9 8 9 8 4 1 4 6 6 7 8 8 7 5 4 6 8 8 7 7 6 7 7 6 6 5 4 4 3 3 2 2 2 2 1 2
9 10 10 6 7 9 9 10 7 6 5 6 5 3 2 6 6 6 7 7 7 7 5 6 7 7 6 6 6 6 7 7 6 5 4 4 4 3 2 2 2 2 1 1
10 10 11 8 8 8 8 8 6 5 6 7 4 3 0 3 5 5 6 6 6 5 4 4 6 6 6 6 5 4 5 6 5 5 4 3 4 4 3 3 2 2 2 2
8 10 10 10 8 8 10 10 9 7 6 7 6 2 1 2 4 5 5 6 5 4 4 3 4 5 5 5 5 4 4 5 4 4 4 3 3 3 3 3 2 2 2 2
5 8 9 9 8 8 9 9 11 10 8 7 7 2 3 3 5 5 6 7 6 6 6 5 5 4 3 3 4 4 4 4 4 4 4 3 3 3 3 2 2 2 2 2
6 10 11 10 8 6 7 9 10 10 8 7 5 3 4 3 5 5 6 6 6 6 5 5 4 3 3 2 3 4 3 3 3 4 4 3 3 3 3 2 2 2 2 2
8 11 12 13 13 11 10 10 9 10 9 8 5 2 2 3 3 4 4 6 6 5 5 4 3 3 3 3 3 2 2 2 2 3 3 3 2 2 2 2 2 2 1 2
6 9 11 13 13 12 13 12 11 10 9 7 6 2 3 3 3 4 3 4 4 3 4 3 3 2 3 2 2 1 1 2 2 2 2 2 2 2 2 1 1 1 1 1
7 8 11 12 12 12 14 10 10 8 7 7 4 1 3 4 3 2 3 3 3 3 3 3 3 2 2 2 2 1 1 1 2 2 2 2 2 2 2 1 1 1 1 1
6 6 7 11 10 14 7 5 6 7 6 3 1 2 3 3 3 3 3 4 4 4 4 4 3 3 2 2 2 1 1 1 2 2 2 2 2 1 1 1 1 1 1 1
6 5 7 9 11 11 7 5 6 6 4 2 1 3 5 5 4 4 5 5 5 4 3 3 2 2 2 2 2 2 1 1 1 2 2 1 1 1 1 1 1 1 0 0
7 6 8 9 11 10 3 2 4 5 4 1 2 2 3 4 2 2 4 5 4 4 3 2 2 2 2 2 2 2 1 1 0 1 1 1 1 1 1 0 0 1 1 0
8 9 11 12 12 7 3 4 4 5 0 2 3 3 2 2 2 4 4 4 4 3 3 3 3 3 3 2 2 1 1 1 0 0 1 1 1 1 2 1 1 0 1 1
7 7 8 9 10 5 4 4 2 3 3 3 4 4 5 5 5 4 4 3 3 2 2 3 3 2 2 2 1 1 0 0 0 0 0 1 1 2 1 1 1 1 1 2
6 4 3 3 1 3 6 6 4 3 4 4 4 4 4 3 3 3 4 3 2 2 2 2 2 2 2 1 1 1 1 1 0 0 1 1 2 1 2 2 2 2 2 2
4 2 4 3 1 1 3 4 4 3 4 3 3 3 3 2 2 3 3 3 3 2 2 2 2 2 2 1 1 1 1 1 0 1 1 1 2 2 2 1 1 1 1 1
4 4 5 5 2 2 1 2 3 3 3 2 2 2 2 2 2 2 2 2 2 1 1 1 1 1 1 1 1 1 1 0 1 1 2 2 2 2 2 2 1 1 1 1
5 5 5 3 2 3 1 1 1 1 1 1 1 1 1 1 1 1 1 1 1 1 0 1 0 0 0 1 1 1 0 0 1 1 1 1 2 2 2 3 2 2 2 3
Wind_Direction
229 235 244 245 246 255 269 281 295 298 204 197 171 147 161 159 157 162 155 150 149 151 148 143 145 144 143 140 142 144 140 130 134 132 142 148 137 134 124 130 133 134 134 133
243 239 244 254 260 263 279 289 291 294 279 265 193 153 171 157 163 160 154 154 153 152 150 151 154 153 154 151 154 157 148 147 153 146 147 150 150 143 138 122 123 131 133 141
240 249 251 252 262 269 269 271 274 282 294 282 254 210 195 153 154 154 163 157 155 157 156 158 163 165 164 161 160 159 155 155 165 157 152 149 135 124 111 118 124 127 125 121
248 250 255 256 257 268 272 278 282 278 274 270 247 237 220 181 164 158 167 164 157 156 156 159 164 167 167 162 158 154 152 152 157 158 161 169 155 140 134 134 129 129 115 110
255 251 252 254 260 261 275 285 288 283 274 266 257 255 211 189 178 170 167 157 150 149 153 156 157 161 166 162 157 155 147 147 150 160 162 169 161 149 133 134 133 133 132 138
258 257 254 258 261 261 277 286 281 273 272 260 240 243 237 202 174 164 154 144 131 141 148 149 153 154 158 157 159 159 149 152 157 163 165 173 171 141 138 144 143 153 154 162
243 239 239 246 254 250 253 267 279 280 260 258 228 215 151 152 141 131 131 131 133 145 147 150 151 151 153 155 156 150 146 155 164 172 176 178 182 181 173 174 171 166 163 166
248 240 221 225 245 263 261 252 255 266 277 282 248 198 143 159 137 115 123 129 132 134 139 146 148 149 153 157 150 148 147 158 168 176 180 179 188 195 186 184 195 172 174 164
277 274 242 222 238 255 271 270 270 265 271 284 284 196 152 150 136 124 120 120 122 120 125 144 142 148 155 157 154 153 150 159 167 171 170 174 184 195 184 188 195 197 182 178
268 280 266 226 233 236 252 274 291 292 289 281 287 263 197 153 141 133 129 124 126 128 148 155 139 142 147 154 148 150 156 161 165 169 180 177 182 187 173 183 197 196 184 177
251 262 267 247 228 251 250 253 267 282 288 288 286 295 92 133 128 134 132 128 124 123 125 137 137 142 142 138 136 139 146 155 163 170 177 178 174 180 182 185 188 183 181 189
251 261 266 263 251 246 257 262 265 266 266 274 271 224 204 130 124 120 116 106 96 94 100 112 117 128 130 136 132 134 158 159 162 165 168 171 167 174 180 189 195 191 193 198
283 270 269 259 250 232 245 256 270 277 277 273 274 183 163 109 92 92 105 99 92 84 78 75 72 86 106 126 127 141 153 156 164 162 161 158 171 181 186 194 195 193 195 205
270 260 267 271 286 289 264 262 265 275 277 284 285 181 154 125 100 88 96 97 92 86 80 77 70 59 64 94 119 133 144 154 155 151 157 160 176 182 188 186 189 197 200 213
256 257 265 272 279 283 283 281 274 271 278 281 278 241 176 123 100 91 96 102 93 87 81 72 72 64 62 68 86 117 136 144 152 154 164 170 174 173 176 181 190 194 201 212
255 274 275 271 274 276 274 270 270 271 276 274 269 251 141 116 81 83 87 97 99 100 99 93 78 81 87 85 78 90 128 130 141 158 167 159 160 162 175 187 179 190 209 215
254 260 272 271 272 274 264 266 271 278 282 287 284 242 167 141 126 120 125 124 124 110 92 91 89 83 95 111 97 73 109 129 139 144 145 144 152 160 172 192 183 198 206 165
260 270 267 267 270 261 267 287 276 272 273 282 228 168 177 119 107 85 87 99 97 81 80 74 81 91 83 74 81 74 66 109 130 135 132 136 152 156 147 164 176 179 175 175
240 250 262 264 260 258 259 276 292 282 277 317 13 93 109 101 107 88 70 84 96 88 80 82 82 80 71 60 51 53 53 67 112 129 134 137 147 145 145 166 174 152 143 172
221 229 246 259 267 268 264 289 291 269 249 336 67 105 121 140 182 121 84 84 92 93 91 91 87 77 73 59 60 45 38 51 85 138 131 126 154 170 175 203 212 192 167 184
218 226 235 250 259 264 317 308 280 254 332 41 86 88 117 107 61 99 88 79 89 88 88 79 75 70 57 53 78 56 11 328 338 355 138 140 180 191 168 165 169 163 199 215
244 243 238 247 255 255 348 319 343 48 46 61 72 72 68 76 85 89 85 76 86 97 90 83 73 64 54 43 72 83 345 330 318 284 221 175 191 230 178 162 180 199 219 227
239 252 275 276 289 37 32 49 52 60 61 58 73 84 92 97 96 83 77 73 74 80 72 75 67 66 71 63 44 26 359 338 309 213 228 208 183 194 191 197 204 207 212 227
243 251 265 275 191 64 18 43 33 52 73 75 92 96 105 104 97 83 77 68 60 64 67 73 52 36 15 29 51 37 5 317 228 199 230 218 169 172 177 181 180 199 212 227
293 278 272 268 275 294 314 27 43 49 68 91 100 111 115 107 109 88 79 70 57 41 49 62 54 30 5 3 8 40 6 318 262 235 224 224 194 183 184 184 197 192 157 167
280 276 266 280 333 302 310 335 92 141 164 159 156 164 155 161 127 116 121 101 85 19 13 26 346 290 4 21 12 18 315 207 238 249 241 229 201 192 190 174 148 71 102 143